Weather History for Park Rapids, MN

Change the Weather History Date:

Saturday, November 12, 2011

  Actual Average Record
Temperature  
Mean Temperature 40 °F -  
Max Temperature 54 °F 33 °F 62 °F (1981)
Min Temperature 25 °F 17 °F -11 °F (1966)
Degree Days  
Heating Degree Days 26    
Moisture  
Dew Point 24 °F    
Average Humidity 58    
Maximum Humidity 88    
Minimum Humidity 32    
Precipitation  
Precipitation 0.00 in - - ()
Sea Level Pressure  
Sea Level Pressure 29.34 in    
Wind  
Wind Speed 6 mph (SSE)    
Max Wind Speed 13 mph    
Max Gust Speed -    
Visibility 10 miles    
Events      
Averages and records for this station are not official NWS values.
T = Trace of Precipitation, MM = Missing Value Source: NWS Daily Summary

Daily Weather History Graph

Daily Weather History Graph

Search for Another Location

Airport:

Trip Planner

Search our weather history database for the weather conditions in past years. The results will help you decide how hot, cold, wet, or windy it might be!

Date:

Astronomy

Nov. 12, 2011 Rise Set
Actual Time 7:18 AM CST 4:49 PM CST
Civil Twilight 6:45 AM CST 5:22 PM CST
Nautical Twilight 6:09 AM CST 5:58 PM CST
Astronomical Twilight 5:33 AM CST 6:34 PM CST
Moon 5:58 PM CST (11/12) 9:08 AM CST (11/12)
Length of Visible Light 10h 36m
Length of Day
9h 30m
Full, 97% of the Moon is Illuminated
Nov 12
Full
Nov 18
Last Quarter
Nov 25
New
Dec 2
First Quarter
Dec 10
Full

Hourly Weather History & Observations

Time (CST) Temp. Windchill Dew Point Humidity Pressure Visibility Wind Dir Wind Speed Gust Speed Precip Events Conditions
12:53 AM 30.0 °F 25.2 °F 24.1 °F 79% 29.52 in 10.0 mi SSE 4.6 mph - N/A   Clear
1:53 AM 30.0 °F 25.2 °F 24.1 °F 79% 29.51 in 10.0 mi SE 4.6 mph - N/A   Clear
2:53 AM 28.0 °F 21.7 °F 23.0 °F 81% 29.50 in 10.0 mi SSE 5.8 mph - N/A   Clear
3:53 AM 30.0 °F 25.2 °F 24.1 °F 79% 29.48 in 10.0 mi SE 4.6 mph - N/A   Clear
4:53 AM 26.1 °F 19.4 °F 21.9 °F 84% 29.49 in 10.0 mi SE 5.8 mph - N/A   Clear
5:53 AM 25.0 °F 16.3 °F 21.9 °F 88% 29.48 in 10.0 mi SE 8.1 mph - N/A   Clear
6:53 AM 27.0 °F - 23.0 °F 85% 29.47 in 10.0 mi Calm Calm - N/A   Clear
7:53 AM 28.0 °F 22.8 °F 23.0 °F 81% 29.46 in 10.0 mi SE 4.6 mph - N/A   Clear
8:53 AM 30.2 °F 24.3 °F 24.8 °F 80% 29.40 in 10.0 mi SSE 5.8 mph - N/A   Clear
9:53 AM 37.9 °F 32.1 °F 25.0 °F 60% 29.43 in 10.0 mi SSE 8.1 mph - N/A   Clear
10:53 AM 46.9 °F - 26.1 °F 44% 29.41 in 10.0 mi SE 5.8 mph - N/A   Clear
11:53 AM 54.0 °F - 25.0 °F 33% 29.38 in 10.0 mi SSE 11.5 mph - N/A   Clear
12:53 PM 52.0 °F - 23.0 °F 32% 29.35 in 10.0 mi SSE 9.2 mph - N/A   Clear
1:53 PM 52.0 °F - 23.0 °F 32% 29.32 in 10.0 mi SE 10.4 mph - N/A   Clear
2:53 PM 52.0 °F - 23.0 °F 32% 29.29 in 10.0 mi SSE 11.5 mph - N/A   Clear
3:53 PM 52.0 °F - 24.1 °F 34% 29.24 in 10.0 mi SE 12.7 mph - N/A   Clear
4:53 PM 48.0 °F - 24.1 °F 39% 29.23 in 10.0 mi SSE 9.2 mph - N/A   Clear
5:53 PM 46.0 °F 43.1 °F 23.0 °F 40% 29.22 in 10.0 mi SSE 5.8 mph - N/A   Clear
6:53 PM 44.1 °F 38.6 °F 24.1 °F 45% 29.19 in 10.0 mi SSE 10.4 mph - N/A   Clear
7:53 PM 46.4 °F 41.5 °F 24.8 °F 43% 29.14 in 10.0 mi South 10.4 mph - N/A   Clear
8:53 PM 44.1 °F 40.1 °F 26.1 °F 49% 29.17 in 10.0 mi South 6.9 mph - N/A   Clear
9:53 PM 42.1 °F 37.7 °F 27.0 °F 55% 29.15 in 10.0 mi South 6.9 mph - N/A   Clear
10:53 PM 39.9 °F 35.1 °F 27.0 °F 60% 29.11 in 10.0 mi South 6.9 mph - N/A   Clear
11:53 PM 37.9 °F 34.4 °F 27.0 °F 65% 29.12 in 10.0 mi SSW 4.6 mph - N/A   Clear